Вернуться в каталог

PNEO3

АктивенНаукаSSO
NORAD 48268·PAYLOAD·🇫🇷 France

Запущен Apr 29, 2021 с Guiana Space Centre

Loading…

Ближайшие Пролёты (ближайшие 24 часа)

TLE

СвежийSource: Space-Track

Эпоха: Sep 14, 2026, 12:44 UTC

1 48268U 21034A   26257.53107147  .00000103  00000-0  19747-4 0  9994
2 48268  97.8953 331.0137 0001472  83.8422 276.2959 14.81673787290889

Отслеживайте PNEO3 в реальном времени с AllMySat

Download on the App Store